Regional Weather Roundup
Issued by NWS

Home | Current Version | Previous Version | Text Only | Print | Product List | Glossary Off
Versions: 1 2 3 4 5 6 7 8 9 10 11 12 13 14 15 16 17 18 19 20 21 22 23 24 25 26 27 28 29 30 31 32 33 34 35 36 37 38 39 40 41 42 43 44 45 46 47 48 49 50

000
ASUS43 KFSD 302302
RWRSD

WEATHER ROUNDUP FOR SOUTH DAKOTA
NATIONAL WEATHER SERVICE SIOUX FALLS SD
600 PM CDT FRI SEP 30 2016

NOTE: "FAIR" INDICATES FEW OR NO CLOUDS BELOW 12,000 FEET WITH NO
SIGNIFICANT WEATHER AND/OR OBSTRUCTIONS TO VISIBILITY.


SDZ001>005-009-010-012>017-010000-
NORTHWEST AND NORTH CENTRAL SOUTH DAKOTA

CITY           SKY/WX    TMP DP  RH WIND       PRES   REMARKS
BUFFALO          N/A     72  46  39 SE18      29.95R
FAITH            N/A     73  47  39 SE20      30.01F
MOBRIDGE       PTSUNNY   70  45  40 SE18      30.06S
$$

SDZ012>016-024>037-041>051-057-063-072>074-010000-
SOUTHWEST AND SOUTH CENTRAL SOUTH DAKOTA

CITY           SKY/WX    TMP DP  RH WIND       PRES   REMARKS
RAPID CTY ARPT CLOUDY    68  53  58 SE7       30.03R
PIERRE         MOSUNNY   71  46  40 SE20G28   30.06S
CUSTER         CLOUDY    66  45  46 S6        30.16S
ELLSWORTH AFB  CLOUDY    70  51  51 SE9       30.02S
PHILIP         PTSUNNY   78  48  34 S22G30    30.01R
PINE RIDGE     CLOUDY    70  47  43 S13       30.07F
WINNER         FAIR      70  47  43 SE15      30.11S
$$

SDZ004>011-016>023-039-040-010000-
NORTHEAST SOUTH DAKOTA

CITY           SKY/WX    TMP DP  RH WIND       PRES   REMARKS
ABERDEEN       PTSUNNY   73  44  35 S13       30.15S
WATERTOWN      SUNNY     69  48  47 SE10      30.18F
SISSETON         N/A     70  48  45 SE13      30.18S
$$

SDZ017-020-022-023-036>040-048>070-010000-
SOUTHEAST SOUTH DAKOTA

CITY           SKY/WX    TMP DP  RH WIND       PRES   REMARKS
SIOUX FALLS    CLOUDY    71  47  42 SE8       30.18S
HURON          PTSUNNY   70  47  43 SE12      30.15R
MITCHELL       MOSUNNY   70  45  40 S10       30.16S
YANKTON        CLOUDY    68  46  45 SE7       30.15S
$$

ABBREVIATIONS USED IN REMARKS
   TC - TEMPERATURE IN CELSIUS
  WCI - WIND CHILL INDEX
   HX - HEAT INDEX
  VSB - VISIBILITY





USA.gov is the U.S. government's official web portal to all federal, state and local government web resources and services.